This demonstration page uses our WeatherBlox Daily Observations layout. Learn more.

Left ArrowRight Arrow

Hourly Observations for April 25, 2015

Temp ( °F °C ) Dew Point ( °F °C ) Humidity (%) Winds ( mph kmh ) Pressure ( in mb ) Visibility ( mi km ) Precip ( " mm )
12:53 am 00:53 Mostly Cloudy 62 16.7 55 12.8 78 78 Calm 29.90 1013 10 16 0.00 0.03
1:53 am 01:53 Mostly Cloudy 62 16.7 54 12.2 75 75 Calm 29.87 1012 10 16 0.00 0.00
2:53 am 02:53 Cloudy with Light Rain 62 16.7 55 12.8 78 78 Calm 29.88 1012 10 16 0.00 0.03
3:53 am 03:53 Mostly Cloudy 61 16.1 57 13.9 87 87 Calm 29.86 1011 10 16 0.00 0.03
4:53 am 04:53 Cloudy with Light Rain 61 16.1 57 13.9 87 87 Calm 29.86 1011 10 16 0.00 0.03
5:53 am 05:53 Cloudy with Light Rain 60 15.6 57 13.9 90 90 ENE 3 6 29.83 1010 10 16 0.00 0.03
6:11 am 06:11 Cloudy with Nearby Thunderstorms 60 15.6 57 13.9 90 90 NNW 5 7 29.88 1012 7 11 0.02 0.51
6:53 am 06:53 Cloudy with Nearby Thunderstorms 59 15 57 13.9 93 93 NNE 6 9 29.85 1011 4 6 0.16 4.06
7:08 am 07:08 Cloudy with Nearby Thunderstorms 59 15 57 14 94 94 NNE 7 11 29.91 1013 3 4 0.00 0.00
7:18 am 07:18 Cloudy with Strong Thunderstorms 59 15 57 14 94 94 NNW 6 9 29.91 1013 2 3 0.00 0.00
7:26 am 07:26 Cloudy with Nearby Thunderstorms 57 14 57 14 100 100 NNE 5 7 29.91 1013 2 3 0.00 0.00
7:36 am 07:36 Cloudy with Heavy Rain 59 15 57 14 94 94 Calm 29.91 1013 2 3 0.00 0.00
7:42 am 07:42 Cloudy with Heavy Rain 59 15 57 14 94 94 N 5 7 29.91 1013 2 3 0.00 0.00
7:51 am 07:51 Cloudy with Heavy Rain 57 14 57 14 100 100 ENE 9 15 29.88 1012 2 3 0.56 14.22
7:53 am 07:53 Cloudy with Heavy Rain 59 15 57 13.9 93 93 ENE 8 13 29.86 1011 2 3 0.57 14.48
8:23 am 08:23 Cloudy with Light Rain 59 15 57 13.9 93 93 E 5 7 29.88 1012 2 3 0.02 0.51
8:30 am 08:30 Cloudy with Mist and Fog 59 15 57 14 94 94 E 6 9 29.85 1011 3 5 0.00 0.00
8:53 am 08:53 Mostly Cloudy with Mist and Fog 60 15.6 58 14.4 93 93 SE 8 13 29.80 1009 3 5 0.02 0.51
9:53 am 09:53 Cloudy 62 16.7 59 15 90 90 Calm 29.79 1009 10 16 0.00 0.00
10:53 am 10:53 Cloudy 64 17.8 60 15.6 87 87 S 6 9 29.78 1009 10 16 0.00 0.00
11:00 am 11:00 Cloudy 64 18 61 16 88 88 VRB 5 7 29.80 1009 10 16 0.00 0.00
11:53 am 11:53 Cloudy 66 18.9 60 15.6 81 81 S 6 9 29.78 1008 10 16 0.00 0.00
12:53 pm 12:53 Mostly Cloudy 71 21.7 63 17.2 76 76 WSW 6 9 29.74 1007 10 16 0.00 0.00
1:06 pm 13:06 Mostly Sunny 72 22 63 17 73 73 SW 8 13 29.74 1007 10 16 0.00 0.00
1:53 pm 13:53 Partly Cloudy 74 23.3 63 17.2 69 69 WSW 10 17 29.72 1006 10 16 0.00 0.00
2:53 pm 14:53 Partly Cloudy 74 23.3 64 17.8 71 71 WSW 7 11 29.71 1006 10 16 0.00 0.00
3:53 pm 15:53 Mostly Cloudy 76 24.4 64 17.8 67 67 SW 10 17 29.70 1006 10 16 0.00 0.00
4:53 pm 16:53 Sunny 77 25 66 18.9 69 69 WSW 7 11 29.66 1004 10 16 0.00 0.00
5:53 pm 17:53 Mostly Cloudy 78 25.6 66 18.9 67 67 SW 3 6 29.63 1004 10 16 0.00 0.00
6:53 pm 18:53 Sunny 77 25 66 18.9 69 69 WSW 5 7 29.62 1003 10 16 0.00 0.00
7:53 pm 19:53 Mostly Cloudy 75 23.9 67 19.4 76 76 SSW 5 7 29.62 1003 10 16 0.00 0.00
8:53 pm 20:53 Mostly Cloudy 73 22.8 62 16.7 69 69 SW 6 9 29.62 1003 10 16 0.00 0.00
9:53 pm 21:53 Clear 70 21.1 63 17.2 79 79 SW 9 15 29.62 1003 10 16 0.00 0.00
10:53 pm 22:53 Clear 68 20 62 16.7 81 81 SW 6 9 29.63 1004 10 16 0.00 0.00
11:53 pm 23:53 Clear 66 18.9 62 16.7 87 87 SW 8 13 29.63 1004 10 16 0.00 0.00

Powered by AerisWeather